[[{"header":{"parameterUnit":"m.s-1","parameterCategory":1,"la1":30.2991,"la2":30.254,"lo1":-89.0895,"lo2":-89.0444,"dy":0.0017,"dx":0.0017,"nx":28,"ny":28,"refTime":"2023-09-08T03:00:00:Z","depth":0,"parameterNumber":2,"parameterNumberName":"U-component_of_WINDS"},"data":[0,0,0,0,0,0,0,0,0,0,0,0,0,0,0,0,0,0,0,0,0,0,0,0,0,0,0,0,0,0,0,0,0,0,0,0,0,0,0,0,0,0,0,0,0,0,0,0,0,0,0,0,0,0,0,0,0,0,1.4256,1.4257,0,1.4402,1.4403,1.4405,1.4451,1.445,1.4449,1.4449,1.4602,1.4607,1.4612,0,0,0,0,0,0,0,0,0,0,0,0,0,1.4021,1.4025,1.4256,1.4257,1.4259,1.4401,1.4403,1.4405,1.4451,1.445,1.4449,1.4448,1.4601,1.4606,1.4612,0,0,0,0,0,0,0,0,0,0,0,0,0,1.4141,1.4027,1.4255,1.4299,1.4304,1.4401,1.4403,1.4406,1.4451,1.445,1.4449,1.4448,1.4599,1.4606,1.4613,1.4678,0,0,1.4635,1.4638,0,0,0,0,0,0,0,0,1.4134,1.4149,1.4291,1.4296,1.4302,1.4407,1.4377,1.4497,1.4451,1.4395,1.4449,1.4447,1.4538,1.455,1.458,1.4685,1.4692,1.4635,1.464,1.4643,1.4645,0,0,0,0,0,0,0,1.4126,1.4143,1.4314,1.4293,1.43,1.4313,1.4329,1.44,1.4471,1.44,1.4404,1.442,1.4541,1.4573,1.4584,1.4694,1.4635,1.4641,1.4646,1.4648,1.4862,1.4863,0,0,0,0,0,0,1.4109,1.4136,1.4309,1.4318,1.4214,1.4318,1.4336,1.4374,1.4471,1.4484,1.4421,1.4422,1.4562,1.4576,1.459,1.4673,1.4643,1.4649,1.4653,1.486,1.4862,1.4863,0,0,0,0,0,0,1.4104,1.4124,1.4303,1.4228,1.4252,1.4323,1.4366,1.4378,1.441,1.4486,1.45,1.444,1.4561,1.458,1.4656,1.4679,1.4652,1.4659,1.4859,1.4861,1.4863,1.484,0,0,0,0,0,0,1.4097,1.4122,1.4146,1.4228,1.4256,1.4365,1.4368,1.4381,1.4421,1.4424,1.4508,1.4521,1.4562,1.4645,1.4663,1.4688,1.4664,1.4857,1.4859,1.4862,1.4839,1.4841,1.4843,0,0,0,0,0,1.4089,1.4135,1.4147,1.4168,1.4287,1.4366,1.4382,1.4427,1.4423,1.4449,1.4498,1.4518,1.4674,1.4652,1.4673,1.4701,1.4855,1.4859,1.4862,1.4838,1.484,1.4843,0,0,0,0,0,0,1.4054,1.4146,1.4161,1.4235,1.4292,1.4374,1.4407,1.4428,1.4489,1.4489,1.4544,1.4563,1.4635,1.4676,1.465,1.477,1.4766,1.4773,1.474,1.4744,1.4745,1.4734,1.467,0,0,0,0,0,1.4055,1.411,1.4188,1.4246,1.4274,1.4335,1.4371,1.4401,1.4464,1.4489,1.4544,1.4605,1.4668,1.4708,1.477,1.4845,1.4865,1.4875,1.4877,1.4878,1.4884,1.4928,1.4934,1.4874,1.4874,1.4873,0,0,1.4058,1.4115,1.4146,1.424,1.4288,1.4346,1.4356,1.4416,1.4459,1.4498,1.4573,1.4616,1.4688,1.4764,1.48,1.48,1.4905,1.4882,1.4882,1.4888,1.4932,1.4937,1.4942,1.4876,1.4875,1.4875,0,0,1.4092,1.414,1.4194,1.4242,1.4314,1.4355,1.4368,1.4447,1.4476,1.4552,1.4583,1.4637,1.4743,1.4794,1.4833,1.4888,1.4909,1.4907,1.4917,1.4959,1.4964,1.4968,1.4989,1.4995,1.4912,1.4912,1.4912,0,1.4086,1.4172,1.4219,1.4278,1.4319,1.4356,1.4412,1.4457,1.4546,1.4574,1.4573,1.4708,1.4759,1.4848,1.4861,1.4892,1.491,1.4897,1.4959,1.4964,1.4969,1.4989,1.4997,1.4911,1.4912,1.4912,1.4912,0,1.4163,1.4222,1.4257,1.4341,1.4387,1.4444,1.45,1.4541,1.4567,1.4609,1.4687,1.4749,1.4825,1.4849,1.4875,1.4942,1.494,1.4948,1.4945,1.4973,1.4993,1.5001,1.491,1.4911,1.4911,1.4911,0,0,1.4178,1.4288,1.43,1.434,1.4423,1.4471,1.453,1.4603,1.4637,1.4699,1.4751,1.4841,1.4849,1.4894,1.4927,1.4964,1.5005,1.4968,1.4971,1.4973,1.5084,1.5077,1.5085,1.5019,1.5021,1.5022,1.5078,0,1.4223,1.4329,1.4374,1.446,1.4517,1.4554,1.4606,1.4664,1.4705,1.476,1.4806,1.4869,1.4875,1.4903,1.4941,1.4992,1.5028,1.4988,1.507,1.5072,1.5051,1.5095,1.5088,1.5137,1.5086,1.5087,1.5088,0,1.429,1.435,1.4442,1.4519,1.4545,1.4591,1.4662,1.4714,1.4781,1.4808,1.4859,1.489,1.4956,1.4948,1.5041,1.5013,1.5049,1.5079,1.5083,1.5092,1.5082,1.5106,1.5154,1.5161,1.5101,1.51,1.5099,0,1.4293,1.4397,1.4466,1.4498,1.459,1.4622,1.4662,1.4728,1.477,1.4833,1.4861,1.4931,1.4969,1.5024,1.5074,1.5064,1.5162,1.5158,1.5188,1.5187,1.5207,1.5205,1.5261,1.523,1.523,1.523,1.5229,0,1.4338,1.4393,1.4468,1.4511,1.4574,1.4625,1.4687,1.473,1.4789,1.4841,1.4878,1.4927,1.499,1.5048,1.5088,1.5159,1.5176,1.5201,1.5211,1.5198,1.5195,1.5222,1.522,1.5232,1.5231,1.5231,1.523,0,1.4352,1.4404,1.4482,1.4563,1.4585,1.4628,1.4698,1.4741,1.4784,1.4851,1.4869,1.4938,1.5007,1.5063,1.5154,1.5181,1.5256,1.5267,1.5233,1.5238,1.5265,1.5261,1.5341,1.5354,1.5313,1.5313,1.5314,0,1.4377,1.442,1.4506,1.4543,1.4583,1.4643,1.4685,1.4738,1.4781,1.4862,1.4896,1.4968,1.5028,1.5138,1.5197,1.5268,1.5281,1.5304,1.5292,1.5278,1.5282,1.5279,1.5284,1.5305,1.5306,1.5306,1.5306,0,1.4417,1.4442,1.4501,1.457,1.4619,1.4676,1.4734,1.4763,1.4827,1.4874,1.4945,1.4992,1.5085,1.5157,1.5234,1.5277,1.5303,1.5309,1.532,1.5307,1.5285,1.5298,1.5237,1.5307,1.5307,1.5307,1.5307,1.5307,1.4438,1.4479,1.4546,1.4611,1.466,1.4714,1.4758,1.4807,1.4867,1.4946,1.4975,1.5048,1.5116,1.5222,1.5266,1.5325,1.5327,1.5342,1.5346,1.5349,1.5348,1.5276,1.5339,1.5339,1.5339,1.5339,1.5339,0,1.4481,1.4526,1.4585,1.4665,1.4717,1.4735,1.4801,1.4844,1.4907,1.4968,1.5027,1.5109,1.5179,1.5244,1.5317,1.5353,1.5366,1.537,1.5368,1.5378,1.5342,1.5325,1.5358,1.5358,1.5358,1.5358,1.5358,1.5358,1.4509,1.4578,1.4611,1.4706,1.4751,1.4822,1.4858,1.4909,1.4958,1.5048,1.5106,1.5147,1.521,1.5289,1.5354,1.5372,1.5397,1.5398,1.5419,1.5383,1.5381,1.5378,1.5363,1.5403,1.5403,1.545,1.5451,1.5451]},{"header":{"parameterUnit":"m.s-1","parameterCategory":1,"la1":30.2991,"la2":30.254,"lo1":-89.0895,"lo2":-89.0444,"dy":0.0017,"dx":0.0017,"nx":28,"ny":28,"refTime":"2023-09-08T03:00:00:Z","depth":0,"parameterNumber":3,"parameterNumberName":"V-component_of_WINDS"},"data":[0,0,0,0,0,0,0,0,0,0,0,0,0,0,0,0,0,0,0,0,0,0,0,0,0,0,0,0,0,0,0,0,0,0,0,0,0,0,0,0,0,0,0,0,0,0,0,0,0,0,0,0,0,0,0,0,0,0,-0.0082,-0.008,0,0.0059,0.006,0.0062,-0.0036,-0.004,-0.0044,-0.0049,0.01,0.0108,0.0116,0,0,0,0,0,0,0,0,0,0,0,0,0,-0.0433,-0.0426,-0.0082,-0.008,-0.0078,0.0058,0.006,0.0062,-0.0035,-0.004,-0.0046,-0.0051,0.0097,0.0107,0.0116,0,0,0,0,0,0,0,0,0,0,0,0,0,-0.0285,-0.0424,-0.0082,-0.011,-0.0112,0.0058,0.006,0.0063,-0.0034,-0.004,-0.0047,-0.0053,0.0094,0.0106,0.0118,0.0324,0,0,0.0154,0.016,0,0,0,0,0,0,0,0,-0.0294,-0.0272,-0.0108,-0.0108,-0.0109,-0.0013,-0.0009,0.015,-0.0032,-0.0063,-0.0049,-0.0056,0.0068,0.0082,0.0123,0.0331,0.0337,0.0156,0.0163,0.0168,0.0171,0,0,0,0,0,0,0,-0.0304,-0.0279,-0.0026,-0.0106,-0.0106,-0.013,-0.0116,0.002,0.0038,-0.0061,-0.0068,-0.005,0.0066,0.0111,0.0125,0.0339,0.0155,0.0166,0.0173,0.0178,0.0717,0.0724,0,0,0,0,0,0,-0.0312,-0.0287,-0.0031,-0.0022,-0.022,-0.0118,-0.0103,-0.0037,0.0036,0.0041,-0.0044,-0.0055,0.0094,0.0111,0.013,0.0372,0.0168,0.0179,0.0186,0.071,0.0719,0.0726,0,0,0,0,0,0,-0.0319,-0.0288,-0.0036,-0.0156,-0.0126,-0.0105,-0.003,-0.0031,0.0014,0.0048,0.0051,-0.0002,0.0089,0.0113,0.0275,0.0375,0.0185,0.0196,0.0702,0.0713,0.0722,0.0859,0,0,0,0,0,0,-0.0329,-0.029,-0.0211,-0.0154,-0.0119,0.0106,-0.0024,-0.0023,0.0034,0.0022,0.0089,0.0094,0.0086,0.0257,0.0287,0.0389,0.0205,0.0693,0.0707,0.0719,0.0846,0.0873,0.0897,0,0,0,0,0,-0.0341,-0.0176,-0.0207,-0.0175,-0.002,0.0112,0.0132,0.0118,0.0043,0.0122,0.0143,0.0092,0.036,0.0275,0.0307,0.0414,0.0686,0.0703,0.0718,0.0834,0.0868,0.0896,0,0,0,0,0,0,-0.0218,-0.0168,-0.0202,-0.0013,0.0045,0.0095,0.0195,0.0155,0.0238,0.0223,0.0204,0.022,0.0388,0.0418,0.0321,0.0614,0.0511,0.0534,0.0588,0.0621,0.0646,0.0634,0.0215,0,0,0,0,0,-0.017,-0.0067,-0.0029,0.0134,0.0165,0.0175,0.0233,0.0216,0.0277,0.0302,0.0336,0.0397,0.0494,0.056,0.0652,0.085,0.0861,0.0939,0.0965,0.0985,0.1005,0.1106,0.114,0.0779,0.0778,0.0778,0,0,-0.0067,-0.0028,0.0039,0.0159,0.0203,0.0309,0.0197,0.0316,0.0393,0.0321,0.0473,0.05,0.0567,0.0746,0.0827,0.0776,0.1107,0.1006,0.1022,0.103,0.1126,0.116,0.119,0.0789,0.0787,0.0786,0,0,0.0172,0.0214,0.0351,0.0396,0.0462,0.0466,0.0499,0.0555,0.0568,0.0721,0.0666,0.0759,0.0929,0.0977,0.1024,0.1276,0.123,0.1307,0.1439,0.1538,0.1566,0.1591,0.1676,0.1707,0.1327,0.1327,0.1327,0,0.0291,0.0447,0.0427,0.0547,0.06,0.0536,0.0673,0.0719,0.0813,0.085,0.0792,0.0999,0.1041,0.1227,0.1287,0.133,0.1364,0.1298,0.1563,0.1588,0.1611,0.1692,0.1725,0.1336,0.1335,0.1334,0.1333,0,0.0588,0.0697,0.08,0.0887,0.0952,0.1081,0.1079,0.1147,0.1124,0.1135,0.1288,0.1335,0.1432,0.1476,0.1457,0.1659,0.1624,0.1566,0.1461,0.1655,0.173,0.1761,0.1348,0.1345,0.1342,0.134,0,0,0.091,0.0981,0.1019,0.1055,0.1121,0.1205,0.1329,0.1422,0.1478,0.1545,0.1646,0.1789,0.1733,0.1786,0.1771,0.1859,0.2048,0.1788,0.1789,0.1831,0.2267,0.2307,0.2344,0.2018,0.2024,0.2029,0.2259,0,0.1149,0.1363,0.1346,0.1548,0.1646,0.1584,0.1692,0.1743,0.1756,0.184,0.1854,0.1953,0.1875,0.1905,0.1989,0.2007,0.2134,0.1991,0.211,0.2115,0.2092,0.2384,0.2429,0.2644,0.2289,0.2294,0.2298,0,0.1457,0.1529,0.174,0.1785,0.1825,0.1922,0.2002,0.2085,0.2141,0.2143,0.22,0.2169,0.2292,0.2186,0.2353,0.2256,0.2303,0.2319,0.2327,0.2336,0.2216,0.2396,0.2713,0.2744,0.2345,0.2341,0.2338,0,0.1665,0.1815,0.1958,0.1992,0.2051,0.2119,0.2146,0.2196,0.225,0.2321,0.2356,0.2442,0.2488,0.2554,0.2546,0.247,0.2715,0.2609,0.2718,0.2718,0.277,0.2767,0.3095,0.2808,0.2807,0.2807,0.2806,0,0.1931,0.2062,0.2051,0.214,0.2282,0.2261,0.2404,0.2423,0.2467,0.2556,0.251,0.2596,0.2581,0.2667,0.2662,0.2798,0.2821,0.2824,0.282,0.2826,0.2825,0.2855,0.2839,0.2815,0.2813,0.2812,0.281,0,0.2187,0.2186,0.2338,0.2378,0.2391,0.2494,0.2528,0.2611,0.2617,0.2731,0.2757,0.2768,0.2865,0.2864,0.2976,0.2972,0.3138,0.3119,0.3118,0.3113,0.3219,0.3208,0.3576,0.3621,0.3308,0.3311,0.3314,0,0.2356,0.2453,0.2503,0.2558,0.2588,0.268,0.2733,0.2716,0.2774,0.2842,0.2915,0.3007,0.308,0.3238,0.3255,0.3339,0.332,0.3443,0.3332,0.3333,0.3316,0.3308,0.3316,0.3464,0.3468,0.347,0.3473,0,0.2653,0.2646,0.2725,0.2803,0.2867,0.2929,0.2985,0.3033,0.3021,0.3088,0.3185,0.3241,0.3352,0.3443,0.3522,0.355,0.3509,0.3507,0.3536,0.3541,0.3534,0.3534,0.3173,0.3499,0.3496,0.3494,0.3493,0.3492,0.2868,0.2949,0.2994,0.3082,0.3121,0.3173,0.3251,0.3265,0.3345,0.3432,0.3417,0.3524,0.3573,0.3675,0.3709,0.3792,0.3749,0.3792,0.3802,0.3812,0.3821,0.3524,0.3807,0.3807,0.3806,0.3805,0.3805,0,0.3158,0.3183,0.3264,0.3341,0.3409,0.3362,0.3421,0.3481,0.3575,0.3623,0.3693,0.3802,0.3888,0.3911,0.3994,0.4055,0.4038,0.4077,0.4071,0.4077,0.3858,0.3822,0.4089,0.4089,0.4089,0.4089,0.4089,0.4089,0.3318,0.3451,0.3449,0.36,0.3624,0.3726,0.3763,0.3809,0.3847,0.3969,0.4039,0.4053,0.409,0.4174,0.425,0.4254,0.4285,0.4331,0.4327,0.4122,0.4093,0.4066,0.4032,0.4339,0.4339,0.4538,0.454,0.4542]}]]